SL-16 DEB, 24303

Orbit data source: Space-Track

SL-16 DEB, 24303 is space debris in LEO originally from a launch on Wed, 04 Sep 1996 UTC launched from the Tyuratam Missile And Space Complex (TTMTR). Debris objects in space refer to the collection of defunct objects orbiting the Earth. Examples of debris include non-operational satellites, rocket bodies, and fragments generated from explosions, collisions, or faulty payload assembly.

Loading next visibility...
Identifier
24303, 1996-051G
Orbit
LEO
Last TLE update
13 hours ago
Origin
Manufacturer
Unknown
Mission
Spacecraft
Bus & Motor
Unknown
Mass
Unknown
Launch date (UTC)
1996-09-04 (29 years ago)
Launch vehicle
Unknown
Launch site
Tyuratam Missile And Space Complex (TTMTR)
Object type
Payload
Rocket body
Debris
Shape & HBR
Unknown
Radar Cross Section
0.470 m², Medium (>0.1 m² and < 1m²)

Expand to show TLE details & history

TLE from 13 hours ago
0 SL-16 DEB
1 24303U 96051G   25129.31415530  .00000269  00000-0  17992-3 0  9992
2 24303  71.1043 145.8174 0072539 249.5121 208.2386 14.08356808473804
Epoch: 2025-05-09T07:32Z
Definitive object data (Epoch: 2025-05-09T07:32:23.017Z)
Latitude
69.86433°
Longitude
-82.88067°
Altitude
922.921 km
Speed
7.373 km/s
True Right ascension
17h 10m 20s
True Declination
69° 45' 20"
Sunlit
Object was in daylight at TLE epoch
Visualization TLE readout
Latitude
-70.58804°
Longitude
59.31659°
Altitude
840.307 km
Speed
7.458 km/s
Apparent Right ascension
17h 53m 14s
Apparent Declination
-74° 44' 21"
Sunlit
Object is in daylight
Visualization observer readout
Local Sidereal Time
04:26:53
Azimuth
189.433° SSW
Elevation
-53.78°
Doppler factor
1
Orbital elements
Apogee altitude
915.447 km
Perigee altitude
810.395 km
Semi-major axis
7,241.058 km
Eccentricity
0.0072539
Inclination
71.1043°
RAAN
145.8174°
Arg. of periapsis
249.5121°
True anomaly
207.84843°
Mean anomaly
208.2386°
Eccentric anomaly
208.0432°
Mean motion
3.52241 °/min
BSTAR
0.00017992
Orbital period
102.2 mins
Loading maneuver chart data...
Loading SW <> Apogee altitude chart data...
Loading historical data...
Loading historical data...
Loading historical data...
Loading historical data...
Loading historical data...
Loading historical data...
Loading historical data...

SL-16 DEB Visibility forecast

Observer location: undefined°, undefined°

Span
Click to sort rows by Start time (UTC) header in descending order
Start Az.
Max El. time (UTC)
Max El. Az.
Max El.
End time (UTC)
End Az.
11 mins2025-05-10 01:55:47.403Z180.689° SSW2025-05-10 02:00:47.403Z119.54° SE38.105°2025-05-10 02:06:47.403Z33.06° NE
8 mins2025-05-10 03:42:47.403Z263.225° W2025-05-10 03:45:47.403Z302.175° NW23.256°2025-05-10 03:50:47.403Z359.644° N
8 mins2025-05-10 10:54:47.403Z9.821° NNE2025-05-10 10:57:47.403Z46.932° ENE22.589°2025-05-10 11:02:47.403Z107.361° ESE
9 mins2025-05-10 12:38:47.403Z322.745° NNW2025-05-10 12:42:47.403Z264.556° W37.827°2025-05-10 12:47:47.403Z181.274° SSW
|